Litchfield, MN

5:05 AM CDT on May 26, 2017 (GMT -0500)
Litchfield Municipal

Weather History for KLJF - November, 2013

Change the Weather History Date:

Sunday, November 3, 2013

  Actual Average Record
Temperature  
Mean Temperature 45 °F -  
Max Temperature 55 °F 46 °F 73 °F (1978)
Min Temperature 35 °F 29 °F 8 °F (1991)
Degree Days  
Heating Degree Days 20    
Moisture  
Dew Point 34 °F    
Average Humidity 66    
Maximum Humidity 93    
Minimum Humidity 36    
Precipitation  
Precipitation 0.00 in - - ()
Sea Level Pressure  
Sea Level Pressure 29.93 in    
Wind  
Wind Speed 8 mph (SE)    
Max Wind Speed 23 mph    
Max Gust Speed 36 mph    
Visibility 10 miles    
Events      
Averages and records for this station are not official NWS values.
T = Trace of Precipitation, MM = Missing Value Source: NWS Daily Summary

Daily Weather History Graph

Daily Weather History Graph

Search for Another Location

Airport or City:

Trip Planner

Search our weather history database for the weather conditions in past years. The results will help you decide how hot, cold, wet, or windy it might be!

Date:

Astronomy

Nov. 03, 2013 Rise Set
Actual Time 6:59 AM CST 5:02 PM CST
Civil Twilight 6:28 AM CST 5:33 PM CST
Nautical Twilight 5:54 AM CST 6:08 PM CST
Astronomical Twilight 5:19 AM CST 6:42 PM CST
Moon 7:05 AM CST (11/3) 5:16 PM CST (11/3)
Length of Visible Light 11h 04m
Length of Day
10h 02m
New Moon, 0% of the Moon is Illuminated
Nov 3
New Moon
Nov 9
First Quarter
Nov 17
Full
Nov 25
Last Quarter
Dec 2
New

Hourly Weather History & Observations

Time (CST) Temp. Windchill Dew Point Humidity Pressure Visibility Wind Dir Wind Speed Gust Speed Precip Events Conditions
12:13 AM 39.2 °F - 35.6 °F 87% 30.06 in 10.0 mi Calm Calm - N/A   Clear
12:32 AM 39.2 °F - 35.6 °F 87% 30.05 in 10.0 mi Calm Calm - N/A   Clear
12:53 AM 41.0 °F - 35.6 °F 81% 30.06 in 10.0 mi Calm Calm - N/A   Clear
1:13 AM 41.0 °F - 35.6 °F 81% 30.06 in 10.0 mi Calm Calm - N/A   Clear
1:32 AM 39.2 °F - 35.6 °F 87% 30.06 in 10.0 mi Calm Calm - N/A   Clear
1:53 AM 41.0 °F - 35.6 °F 81% 30.07 in 10.0 mi Calm Calm - N/A   Clear
1:13 AM 41.0 °F - 35.6 °F 81% 30.06 in 10.0 mi Calm Calm - N/A   Clear
1:32 AM 41.0 °F 37.1 °F 35.6 °F 81% 30.06 in 10.0 mi SSE 5.8 mph - N/A   Clear
1:53 AM 39.2 °F - 35.6 °F 87% 30.06 in 10.0 mi Calm Calm - N/A   Clear
2:12 AM 35.6 °F 29.9 °F 33.8 °F 93% 30.05 in 10.0 mi SE 6.9 mph - N/A   Clear
2:33 AM 37.4 °F 31.4 °F 35.6 °F 93% 30.05 in 10.0 mi SE 8.1 mph - N/A   Clear
2:53 AM 39.2 °F 34.2 °F 35.6 °F 87% 30.04 in 10.0 mi SE 6.9 mph - N/A   Clear
3:12 AM 39.2 °F 34.2 °F 35.6 °F 87% 30.04 in 10.0 mi SE 6.9 mph - N/A   Clear
3:33 AM 37.4 °F 31.4 °F 35.6 °F 93% 30.03 in 10.0 mi SE 8.1 mph - N/A   Clear
3:53 AM 37.4 °F 32.1 °F 33.8 °F 87% 30.03 in 10.0 mi SE 6.9 mph - N/A   Clear
4:12 AM 37.4 °F 31.4 °F 33.8 °F 87% 30.02 in 10.0 mi SE 8.1 mph - N/A   Clear
4:33 AM 37.4 °F 31.4 °F 33.8 °F 87% 30.01 in 10.0 mi SE 8.1 mph - N/A   Clear
4:53 AM 37.4 °F 31.4 °F 33.8 °F 87% 30.01 in 10.0 mi SE 8.1 mph - N/A   Clear
5:12 AM 37.4 °F 30.8 °F 33.8 °F 87% 30.01 in 10.0 mi SE 9.2 mph - N/A   Clear
5:33 AM 37.4 °F 31.4 °F 33.8 °F 87% 30.00 in 10.0 mi SE 8.1 mph - N/A   Clear
5:53 AM 37.4 °F 32.1 °F 33.8 °F 87% 29.99 in 10.0 mi SE 6.9 mph - N/A   Clear
6:12 AM 37.4 °F 31.4 °F 33.8 °F 87% 29.99 in 10.0 mi SE 8.1 mph - N/A   Clear
6:33 AM 37.4 °F 31.4 °F 33.8 °F 87% 29.99 in 10.0 mi SE 8.1 mph - N/A   Clear
6:53 AM 35.6 °F 29.2 °F 33.8 °F 93% 29.99 in 10.0 mi SE 8.1 mph - N/A   Clear
7:12 AM 37.4 °F 30.8 °F 33.8 °F 87% 29.99 in 10.0 mi SE 9.2 mph - N/A   Clear
7:33 AM 37.4 °F 30.8 °F 33.8 °F 87% 29.99 in 10.0 mi SE 9.2 mph - N/A   Clear
7:53 AM 39.2 °F 32.5 °F 35.6 °F 87% 29.99 in 10.0 mi SE 10.4 mph - N/A   Clear
8:12 AM 41.0 °F 34.3 °F 35.6 °F 81% 29.98 in 10.0 mi SE 11.5 mph 17.3 mph N/A   Clear
8:33 AM 42.8 °F 36.2 °F 35.6 °F 76% 29.98 in 10.0 mi SSE 12.7 mph 19.6 mph N/A   Clear
8:53 AM 42.8 °F 37.0 °F 35.6 °F 76% 29.99 in 10.0 mi SE 10.4 mph - N/A   Clear
9:12 AM 44.6 °F 38.8 °F 35.6 °F 71% 29.98 in 10.0 mi SSE 11.5 mph 20.7 mph N/A   Clear
9:33 AM 44.6 °F 37.4 °F 35.6 °F 71% 29.97 in 10.0 mi SE 16.1 mph 24.2 mph N/A   Clear
9:53 AM 44.6 °F 38.1 °F 35.6 °F 71% 29.97 in 10.0 mi SE 13.8 mph 17.3 mph N/A   Clear
10:12 AM 46.4 °F 39.8 °F 35.6 °F 66% 29.96 in 10.0 mi SE 16.1 mph 21.9 mph N/A   Clear
10:33 AM 48.2 °F - 35.6 °F 62% 29.95 in 10.0 mi SSE 13.8 mph 23.0 mph N/A   Clear
10:53 AM 51.8 °F - 35.6 °F 54% 29.94 in 10.0 mi SSE 15.0 mph 26.5 mph N/A   Clear
11:12 AM 51.8 °F - 35.6 °F 54% 29.93 in 10.0 mi SE 20.7 mph 32.2 mph N/A   Clear
11:33 AM 53.6 °F - 35.6 °F 51% 29.91 in 10.0 mi SE 16.1 mph 27.6 mph N/A   Clear
11:52 AM 53.6 °F - 33.8 °F 47% 29.90 in 10.0 mi SSE 17.3 mph 31.1 mph N/A   Clear
12:13 PM 53.6 °F - 33.8 °F 47% 29.88 in 10.0 mi SE 20.7 mph 33.4 mph N/A   Clear
12:33 PM 53.6 °F - 33.8 °F 47% 29.87 in 10.0 mi SE 20.7 mph 34.5 mph N/A   Clear
12:52 PM 55.4 °F - 32.0 °F 41% 29.86 in 10.0 mi SE 20.7 mph 34.5 mph N/A   Clear
1:13 PM 53.6 °F - 30.2 °F 41% 29.84 in 10.0 mi SE 23.0 mph 34.5 mph N/A   Clear
1:33 PM 55.4 °F - 32.0 °F 41% 29.84 in 10.0 mi SE 21.9 mph 34.5 mph N/A   Clear
1:52 PM 55.4 °F - 28.4 °F 36% 29.84 in 10.0 mi SSE 21.9 mph 35.7 mph N/A   Clear
2:13 PM 55.4 °F - 30.2 °F 38% 29.83 in 10.0 mi SSE 16.1 mph 29.9 mph N/A   Clear
2:33 PM 55.4 °F - 30.2 °F 38% 29.83 in 10.0 mi SSE 17.3 mph 28.8 mph N/A   Clear
2:52 PM 55.4 °F - 28.4 °F 36% 29.84 in 10.0 mi SSE 21.9 mph 32.2 mph N/A   Clear
3:13 PM 53.6 °F - 30.2 °F 41% 29.83 in 10.0 mi SSE 18.4 mph 32.2 mph N/A   Clear
3:32 PM 53.6 °F - 30.2 °F 41% 29.84 in 10.0 mi SE 13.8 mph 29.9 mph N/A   Clear
3:53 PM 53.6 °F - 30.2 °F 41% 29.83 in 10.0 mi SE 18.4 mph 25.3 mph N/A   Clear
4:13 PM 53.6 °F - 30.2 °F 41% 29.82 in 10.0 mi SE 16.1 mph 26.5 mph N/A   Clear
4:33 PM 51.8 °F - 30.2 °F 44% 29.82 in 10.0 mi SE 16.1 mph 21.9 mph N/A   Clear
4:52 PM 51.8 °F - 30.2 °F 44% 29.83 in 10.0 mi SSE 13.8 mph 24.2 mph N/A   Clear
5:13 PM 51.8 °F - 32.0 °F 47% 29.83 in 10.0 mi SSE 12.7 mph 21.9 mph N/A   Clear
5:33 PM 51.8 °F - 32.0 °F 47% 29.83 in 10.0 mi SE 15.0 mph 24.2 mph N/A   Clear
5:53 PM 51.8 °F - 32.0 °F 47% 29.83 in 10.0 mi SE 12.7 mph 24.2 mph N/A   Clear
6:13 PM 51.8 °F - 32.0 °F 47% 29.83 in 10.0 mi SE 15.0 mph 20.7 mph N/A   Clear
6:32 PM 50.0 °F - 32.0 °F 50% 29.83 in 10.0 mi SE 13.8 mph 21.9 mph N/A   Clear
6:53 PM 48.2 °F - 32.0 °F 54% 29.83 in 10.0 mi SE 12.7 mph 21.9 mph N/A   Clear
7:13 PM 48.2 °F - 33.8 °F 58% 29.83 in 10.0 mi SE 13.8 mph 20.7 mph N/A   Clear
7:32 PM 48.2 °F - 33.8 °F 58% 29.83 in 10.0 mi SE 12.7 mph 18.4 mph N/A   Clear
7:53 PM 48.2 °F - 33.8 °F 58% 29.84 in 10.0 mi SE 13.8 mph 20.7 mph N/A   Clear
8:12 PM 48.2 °F - 33.8 °F 58% 29.83 in 10.0 mi SE 11.5 mph 18.4 mph N/A   Clear
8:33 PM 48.2 °F - 33.8 °F 58% 29.83 in 10.0 mi SE 13.8 mph 18.4 mph N/A   Clear
8:53 PM 48.2 °F - 33.8 °F 58% 29.83 in 10.0 mi SSE 11.5 mph 21.9 mph N/A   Clear
9:12 PM 48.2 °F - 33.8 °F 58% 29.83 in 10.0 mi SSE 16.1 mph 24.2 mph N/A   Mostly Cloudy
9:33 PM 48.2 °F - 33.8 °F 58% 29.83 in 10.0 mi SSE 13.8 mph 21.9 mph N/A   Overcast
9:53 PM 48.2 °F - 33.8 °F 58% 29.83 in 10.0 mi SSE 12.7 mph 20.7 mph N/A   Overcast
10:12 PM 48.2 °F - 33.8 °F 58% 29.83 in 10.0 mi SSE 13.8 mph 25.3 mph N/A   Overcast
10:33 PM 48.2 °F - 33.8 °F 58% 29.82 in 10.0 mi SSE 12.7 mph 25.3 mph N/A   Overcast
10:52 PM 48.2 °F - 33.8 °F 58% 29.82 in 10.0 mi SSE 10.4 mph 21.9 mph N/A   Overcast